Weather History for Soldotna, AK

Change the Weather History Date:

Saturday, November 24, 2012

  Actual Average Record
Temperature  
Mean Temperature 3 °F -  
Max Temperature 10 °F 25 °F 42 °F (1992)
Min Temperature -4 °F 12 °F -20 °F (1963)
Degree Days  
Heating Degree Days 62    
Moisture  
Dew Point -1 °F    
Average Humidity 87    
Maximum Humidity 100    
Minimum Humidity 72    
Precipitation  
Precipitation 0.00 in - - ()
Sea Level Pressure  
Sea Level Pressure 29.85 in    
Wind  
Wind Speed 4 mph (ENE)    
Max Wind Speed 7 mph    
Max Gust Speed -    
Visibility 10 miles    
Events      
Averages and records for this station are not official NWS values.
T = Trace of Precipitation, MM = Missing Value Source: NWS Daily Summary

Daily Weather History Graph

Daily Weather History Graph

Search for Another Location

Airport:

Trip Planner

Search our weather history database for the weather conditions in past years. The results will help you decide how hot, cold, wet, or windy it might be!

Date:

Astronomy

Nov. 24, 2012 Rise Set
Actual Time 9:29 AM AKST 4:12 PM AKST
Civil Twilight 8:35 AM AKST 5:05 PM AKST
Nautical Twilight 7:41 AM AKST 6:00 PM AKST
Astronomical Twilight 6:50 AM AKST 6:51 PM AKST
Moon 2:44 PM AKST (11/24) 5:08 AM AKST (11/24)
Length of Visible Light 8h 29m
Length of Day
6h 43m
Waxing Gibbous, 88% of the Moon is Illuminated
Nov 24
Waxing Gibbous
Nov 28
Full
Dec 6
Last Quarter
Dec 12
New
Dec 19
First Quarter

Hourly Weather History & Observations

Time (AKST) Temp. Windchill Dew Point Humidity Pressure Visibility Wind Dir Wind Speed Gust Speed Precip Events Conditions
12:16 AM 3.2 °F -6.2 °F 3.2 °F 100% 29.76 in 10.0 mi ENE 4.6 mph - N/A   Clear
12:36 AM -0.4 °F -8.3 °F -7.6 °F 72% 29.76 in 10.0 mi ENE 3.5 mph - N/A   Clear
12:56 AM 1.4 °F -8.3 °F -0.4 °F 92% 29.76 in 10.0 mi ENE 4.6 mph - N/A   Clear
1:16 AM 3.2 °F -6.2 °F 1.4 °F 92% 29.76 in 10.0 mi ENE 4.6 mph - N/A   Clear
1:36 AM 1.4 °F -8.3 °F -2.2 °F 85% 29.76 in 10.0 mi ENE 4.6 mph - N/A   Clear
1:56 AM 3.2 °F -6.2 °F -0.4 °F 85% 29.76 in 10.0 mi East 4.6 mph - N/A   Clear
2:16 AM 1.4 °F -8.3 °F -0.4 °F 92% 29.76 in 10.0 mi ENE 4.6 mph - N/A   Clear
2:36 AM 3.2 °F -6.2 °F -0.4 °F 85% 29.77 in 10.0 mi ENE 4.6 mph - N/A   Clear
3:16 AM 1.4 °F -8.3 °F -2.2 °F 85% 29.77 in 10.0 mi ENE 4.6 mph - N/A   Clear
3:36 AM -0.4 °F -8.3 °F -7.6 °F 72% 29.77 in 10.0 mi East 3.5 mph - N/A   Clear
3:56 AM 1.4 °F -9.9 °F -0.4 °F 92% 29.78 in 10.0 mi East 5.8 mph - N/A   Clear
4:16 AM 1.4 °F -9.9 °F -2.2 °F 85% 29.78 in 10.0 mi East 5.8 mph - N/A   Clear
4:36 AM -0.4 °F -12.0 °F -2.2 °F 92% 29.78 in 10.0 mi East 5.8 mph - N/A   Clear
4:56 AM -0.4 °F -13.4 °F -2.2 °F 92% 29.78 in 10.0 mi East 6.9 mph - N/A   Clear
5:16 AM -0.4 °F -10.4 °F -2.2 °F 92% 29.78 in 10.0 mi East 4.6 mph - N/A   Clear
5:36 AM -0.4 °F -12.0 °F -4.0 °F 85% 29.78 in 10.0 mi ENE 5.8 mph - N/A   Clear
5:56 AM -0.4 °F -10.4 °F -4.0 °F 85% 29.78 in 10.0 mi East 4.6 mph - N/A   Clear
6:16 AM -0.4 °F -10.4 °F -4.0 °F 85% 29.79 in 10.0 mi ENE 4.6 mph - N/A   Clear
6:36 AM -0.4 °F -10.4 °F -4.0 °F 85% 29.78 in 10.0 mi ENE 4.6 mph - N/A   Clear
6:56 AM -2.2 °F -10.4 °F -5.8 °F 85% 29.79 in 10.0 mi ENE 3.5 mph - N/A   Clear
7:16 AM -2.2 °F -14.2 °F -2.2 °F 100% 29.79 in 10.0 mi East 5.8 mph - N/A   Clear
7:36 AM -2.2 °F -14.2 °F -7.6 °F 78% 29.79 in 10.0 mi East 5.8 mph - N/A   Clear
7:56 AM -2.2 °F -12.5 °F -4.0 °F 92% 29.80 in 10.0 mi ENE 4.6 mph - N/A   Clear
8:16 AM -4.0 °F -16.3 °F -9.4 °F 78% 29.80 in 10.0 mi East 5.8 mph - N/A   Clear
8:36 AM -4.0 °F -14.6 °F -4.0 °F 100% 29.81 in 10.0 mi ENE 4.6 mph - N/A   Clear
8:56 AM -2.2 °F -14.2 °F -5.8 °F 85% 29.81 in 10.0 mi ENE 5.8 mph - N/A   Clear
9:16 AM -2.2 °F -14.2 °F -5.8 °F 85% 29.82 in 10.0 mi East 5.8 mph - N/A   Clear
9:36 AM -2.2 °F -12.5 °F -4.0 °F 92% 29.82 in 10.0 mi ENE 4.6 mph - N/A   Clear
9:56 AM -2.2 °F -12.5 °F -7.6 °F 78% 29.82 in 10.0 mi ENE 4.6 mph - N/A   Clear
10:16 AM -2.2 °F -14.2 °F -5.8 °F 85% 29.83 in 10.0 mi ENE 5.8 mph - N/A   Clear
10:36 AM -0.4 °F -12.0 °F -4.0 °F 85% 29.83 in 10.0 mi East 5.8 mph - N/A   Clear
10:56 AM -0.4 °F -10.4 °F -4.0 °F 85% 29.84 in 10.0 mi East 4.6 mph - N/A   Clear
11:16 AM 1.4 °F -9.9 °F -2.2 °F 85% 29.84 in 10.0 mi East 5.8 mph - N/A   Clear
11:36 AM 1.4 °F -11.3 °F -0.4 °F 92% 29.84 in 10.0 mi East 6.9 mph - N/A   Clear
11:56 AM 3.2 °F -6.2 °F -0.4 °F 85% 29.84 in 10.0 mi East 4.6 mph - N/A   Clear
12:16 PM 5.0 °F -5.6 °F 1.4 °F 85% 29.85 in 10.0 mi ENE 5.8 mph - N/A   Clear
12:36 PM 6.8 °F -2.0 °F 3.2 °F 85% 29.85 in 10.0 mi East 4.6 mph - N/A   Clear
12:56 PM 6.8 °F -3.5 °F 3.2 °F 85% 29.85 in 10.0 mi East 5.8 mph - N/A   Clear
1:16 PM 8.6 °F -1.3 °F 6.8 °F 92% 29.85 in 10.0 mi East 5.8 mph - N/A   Clear
1:36 PM 10.4 °F 2.2 °F 8.6 °F 92% 29.85 in 10.0 mi East 4.6 mph - N/A   Clear
1:56 PM 10.4 °F - 6.8 °F 85% 29.86 in 10.0 mi Calm Calm - N/A   Clear
2:16 PM 10.4 °F 4.0 °F 8.6 °F 92% 29.86 in 10.0 mi East 3.5 mph - N/A   Clear
2:36 PM 10.4 °F 4.0 °F 8.6 °F 92% 29.86 in 10.0 mi ENE 3.5 mph - N/A   Clear
2:56 PM 10.4 °F 4.0 °F 6.8 °F 85% 29.86 in 10.0 mi East 3.5 mph - N/A   Clear
3:16 PM 10.4 °F - 8.6 °F 92% 29.86 in 10.0 mi Calm Calm - N/A   Clear
3:36 PM 8.6 °F - 8.6 °F 100% 29.86 in 10.0 mi Calm Calm - N/A   Clear
3:56 PM 8.6 °F - 1.4 °F 73% 29.87 in 10.0 mi Calm Calm - N/A   Clear
4:16 PM 6.8 °F - 5.0 °F 92% 29.88 in 10.0 mi Calm Calm - N/A   Clear
4:36 PM 6.8 °F - 3.2 °F 85% 29.87 in 10.0 mi Calm Calm - N/A   Clear
4:56 PM 3.2 °F -4.2 °F -2.2 °F 78% 29.88 in 3.0 mi ESE 3.5 mph - N/A   Clear
5:16 PM 3.2 °F - -0.4 °F 85% 29.88 in 10.0 mi Calm Calm - N/A   Clear
5:36 PM 5.0 °F -2.1 °F -0.4 °F 78% 29.89 in 10.0 mi NE 3.5 mph - N/A   Clear
5:56 PM 3.2 °F - -0.4 °F 85% 29.90 in 10.0 mi Calm Calm - N/A   Clear
6:16 PM 5.0 °F -2.1 °F 5.0 °F 100% 29.91 in 10.0 mi East 3.5 mph - N/A   Clear
6:36 PM 6.8 °F -0.1 °F -0.4 °F 72% 29.91 in 10.0 mi East 3.5 mph - N/A   Clear
6:56 PM 6.8 °F -0.1 °F 1.4 °F 79% 29.92 in 10.0 mi ESE 3.5 mph - N/A   Clear
7:16 PM 6.8 °F -0.1 °F 6.8 °F 100% 29.92 in 10.0 mi East 3.5 mph - N/A   Clear
7:36 PM 3.2 °F -4.2 °F 1.4 °F 92% 29.92 in 10.0 mi ENE 3.5 mph - N/A   Clear
7:56 PM 1.4 °F -8.3 °F -2.2 °F 85% 29.92 in 10.0 mi East 4.6 mph - N/A   Clear
8:16 PM 5.0 °F -4.1 °F 3.2 °F 92% 29.93 in 10.0 mi ENE 4.6 mph - N/A   Clear
8:36 PM 3.2 °F -4.2 °F -2.2 °F 78% 29.94 in 10.0 mi ENE 3.5 mph - N/A   Clear
8:56 PM 3.2 °F - 1.4 °F 92% 29.95 in 10.0 mi Calm Calm - N/A   Clear
9:16 PM 1.4 °F - -0.4 °F 92% 29.96 in 10.0 mi Calm Calm - N/A   Clear
9:36 PM 3.2 °F -4.2 °F -0.4 °F 85% 29.97 in 10.0 mi ENE 3.5 mph - N/A   Clear
9:56 PM -0.4 °F - -5.8 °F 78% 29.98 in 10.0 mi Calm Calm - N/A   Clear
10:16 PM -0.4 °F -12.0 °F -4.0 °F 85% 29.98 in 10.0 mi East 5.8 mph - N/A   Clear
10:36 PM 3.2 °F -6.2 °F 1.4 °F 92% 29.99 in 10.0 mi ENE 4.6 mph - N/A   Clear
10:56 PM 1.4 °F - -2.2 °F 85% 30.00 in 9.0 mi Calm Calm - N/A   Clear
11:16 PM -0.4 °F - -2.2 °F 92% 30.01 in 10.0 mi Calm Calm - N/A   Clear
11:36 PM -0.4 °F - -5.8 °F 78% 30.01 in 10.0 mi Calm Calm - N/A   Clear
11:56 PM -0.4 °F -8.3 °F -4.0 °F 85% 30.02 in 10.0 mi ENE 3.5 mph - N/A   Clear